User: anonymous
Location: The C. Gantt Observatory
(33.6981°N, 81.6836°W)
Time: 23:19:47
(UTC-04:00)
Language:

Iridium 30 - Orbit

View from above orbital plane
View from above orbital plane
View from above satellite
View from above satellite

Ground track
Ground track

The orbit data is extracted from the following two-line orbital elements,

1 24949U 97051F   14211.47702956  .00000078  00000-0  20792-4 0  9729
2 24949 086.3976 007.2128 0002135 110.8150 249.3274 14.34218106883512
Epoch (UTC): 30 July 2014 11:26:55
Eccentricity: 0.0002135
inclination: 86.3976°
perigee height: 776 km
apogee height: 779 km
right ascension of ascending node: 7.2128°
argument of perigee: 110.8150°
revolutions per day: 14.34218106
mean anomaly at epoch: 249.3274°
orbit number at epoch: 88351

The dashed part of the orbit path shows where the satellite is in the earth's shadow,  

DLR